Flag for Czech Republic Weather past 2 weeks in Plzen, Czech Republic

Now
68 °F

Light rain. Overcast.


Feels Like: 68 °F
Forecast: 53 / 72 °F
Wind: 8 mph from West

Location: Kocelovice

Current Time: Aug 29, 2014 at 4:14:39 PM

Latest Report: Aug 29, 2014 at 3:00 PM


Visibility: 9 mi

Pressure: 30.00 "Hg

Humidity: 71%

Dew point: 58 °F

Location of PlzenLocation

Historic Weather in Plzen — Graph

°F

Plzen temperature yesterday

Maximum temperature yesterday: 68 °F (at 5:00 PM)
Minimum temperature yesterday: 41 °F (at 6:00 AM)
Average temperature yesterday: 56 °F

Past Weeks' High & Low Weather Summary

 TemperatureHumidityPressure
High71 °F (Aug 29, 2:00 PM)100% (Aug 15, 3:00 AM)30.16 "Hg (Aug 15, 3:00 AM)
Low40 °F (Aug 25, 6:00 AM)41% (Aug 28, 3:00 PM)29.70 "Hg (Aug 26, 2:00 PM)
Average56 °F79%29.97 "Hg
* Reported Aug 14 3:00 PM — Aug 29 3:00 PM, Plzen, Weather by CustomWeather, © 2014

Note: Actual official high and low records may vary slightly from our data, if they occured in-between our weather recording intervals... More about our weather records

Advertising

Plzen weather history for previous 24 hours

 ConditionsComfort  
Time TempWeatherWind HumidityBarometerVisibility
3:00 PM
Aug 29
68 °FLight rain. Overcast.8 mph71%30.00 "Hg9 mi
2:00 PM71 °FOvercast.N/A61%29.98 "Hg43 mi
1:00 PM69 °FOvercast.N/A62%29.99 "Hg43 mi
12:00 PM69 °FOvercast.N/A62%30.01 "Hg43 mi
11:00 AM63 °FOvercast.N/A70%30.03 "Hg43 mi
10:00 AM57 °FOvercast.3 mph77%30.07 "Hg40 mi
9:00 AM55 °FOvercast.2 mph86%30.08 "Hg34 mi
8:00 AM52 °FOvercast.N/A93%30.09 "Hg16 mi
7:00 AM49 °FCool.2 mph97%30.10 "Hg7 mi
6:00 AM49 °FCool.N/A98%30.10 "Hg7 mi
5:00 AM49 °FCool.N/A96%30.10 "Hg12 mi
4:00 AM47 °FFog.2 mph99%30.12 "Hg5 mi
3:00 AM49 °FCool.2 mph99%30.11 "Hg8 mi
2:00 AM49 °FCool.N/A98%30.12 "Hg12 mi
1:00 AM51 °FCool.2 mph95%30.12 "Hg12 mi
12:00 AM53 °FCool.1 mph91%30.11 "Hg12 mi
11:00 PM
Aug 28
54 °FCool.N/A85%30.10 "Hg12 mi
10:00 PM56 °FPassing clouds.2 mph81%30.09 "Hg47 mi
9:00 PM60 °FPassing clouds.1 mph61%30.07 "Hg47 mi
8:00 PM64 °FPassing clouds.1 mph50%30.04 "Hg47 mi
7:00 PM67 °FPassing clouds.N/A49%30.03 "Hg47 mi
6:00 PM68 °FPassing clouds.N/A44%30.03 "Hg47 mi
5:00 PM68 °FPassing clouds.N/A45%30.03 "Hg47 mi
4:00 PM68 °FPassing clouds.N/A43%30.05 "Hg47 mi
Weather by CustomWeather, © 2014

See weather overviewHow to use our weather pages